Date String (YYYY-MM-DD hh:mm:ss) UTC,Instrument flags,Ambient pressure (hPa),Sample flow (lpm),Bypass flow (lpm),Sample temperature (°C),Ambient temperature (°C),ASC tube jacket temperature (°C),LED temperature (°C),Box temperature (°C),Sample RH (%),Span deviation,Mass concentration (μg/m³),Mass concentration (μg/m³),Mass concentration (μg/m³)
DateTimeUTC,F1_M11,P_M11,Q1_M11,Q2_M11,T1_M11,T2_M11,T3_M11,T4_M11,T5_M11,U1_M11,ZSPAN_M11,X0_M11,X2_M11,X1_M11
2022-09-07 16:00:00,,0834.3,4.99,0.00,29.9,28.9,00.0,38.6,31.9,19.7,0002.0,0026.50,0015.46,0013.10
2022-09-07 16:01:00,,0834.3,5.00,0.00,30.0,28.3,00.0,38.6,31.9,19.3,0002.0,0027.26,0015.48,0013.09
2022-09-07 16:02:00,,0834.3,5.01,0.00,29.9,27.1,00.0,38.6,31.6,18.9,0002.5,0027.69,0015.48,0013.12
2022-09-07 16:03:00,,0834.3,5.00,0.00,29.9,26.9,00.0,38.6,31.7,18.8,0002.9,0029.05,0015.54,0013.14
2022-09-07 16:04:00,,0834.3,5.00,0.00,29.8,27.2,00.0,38.5,31.6,18.9,0002.7,0031.29,0015.64,0013.17
2022-09-07 16:05:00,,0834.3,4.99,0.00,29.8,27.5,00.0,38.5,31.5,19.5,0002.4,0031.74,0015.67,0013.18
2022-09-07 16:06:00,,0834.2,5.00,0.00,29.8,27.7,00.0,38.5,31.6,19.6,0002.7,0031.51,0015.62,0013.18
2022-09-07 16:07:00,,0834.2,5.00,0.00,29.8,28.0,00.0,38.5,31.6,19.4,0003.1,0031.49,0015.60,0013.17
2022-09-07 16:08:00,,0834.2,5.01,0.00,29.8,28.2,00.0,38.5,31.7,19.3,0003.0,0032.14,0015.69,0013.16
2022-09-07 16:09:00,,0834.2,5.01,0.00,29.8,28.4,00.0,38.5,31.7,19.2,0002.9,0033.37,0015.77,0013.19
2022-09-07 16:10:00,,0834.2,4.99,0.00,29.9,28.6,00.0,38.5,31.8,18.9,0003.0,0033.96,0015.70,0013.19
2022-09-07 16:11:00,,0834.1,5.01,0.00,29.9,28.7,00.0,38.6,31.8,18.8,0002.9,0033.72,0015.60,0013.20
2022-09-07 16:12:00,,0834.1,4.98,0.00,29.9,28.5,00.0,38.6,31.8,19.1,0003.1,0032.84,0015.60,0013.23
2022-09-07 16:13:00,,0834.1,4.99,0.00,29.9,27.4,00.0,38.6,31.7,19.2,0003.0,0032.94,0015.65,0013.25
2022-09-07 16:14:00,,0834.1,5.01,0.00,29.9,27.0,00.0,38.5,31.7,19.3,0002.7,0032.73,0015.67,0013.28
2022-09-07 16:15:00,,0834.1,5.00,0.00,29.8,27.3,00.0,38.5,31.7,19.4,0002.4,0031.26,0015.67,0013.29
2022-09-07 16:16:00,,0834.1,5.00,0.00,29.8,27.5,00.0,38.5,31.6,19.5,0002.4,0031.09,0015.67,0013.30
2022-09-07 16:17:00,,0834.1,5.00,0.00,29.8,27.8,00.0,38.5,31.6,19.6,0002.2,0031.63,0015.77,0013.34
2022-09-07 16:18:00,,0834.0,5.01,0.00,29.8,28.0,00.0,38.5,31.6,19.7,0001.8,0031.78,0015.81,0013.37
2022-09-07 16:19:00,,0834.1,5.00,0.00,29.8,28.2,00.0,38.5,31.6,19.8,0002.1,0031.59,0015.72,0013.39
2022-09-07 16:20:00,,0834.1,4.99,0.00,29.8,28.4,00.0,38.5,31.7,19.5,0002.4,0031.70,0015.66,0013.42
2022-09-07 16:21:00,,0834.1,5.00,0.00,29.8,28.6,00.0,38.5,31.8,19.5,0002.3,0031.79,0015.72,0013.41
2022-09-07 16:22:00,,0834.1,5.00,0.00,29.9,28.7,00.0,38.5,31.8,19.5,0002.7,0030.84,0015.75,0013.43
2022-09-07 16:23:00,,0834.1,5.00,0.00,29.9,28.1,00.0,38.5,31.8,19.6,0002.4,0031.00,0015.84,0013.45
2022-09-07 16:24:00,,0834.1,4.99,0.00,29.9,26.9,00.0,38.5,31.6,19.6,0002.2,0030.77,0015.83,0013.48
2022-09-07 16:25:00,,0834.1,5.00,0.00,29.8,26.9,00.0,38.5,31.6,19.4,0002.6,0032.31,0015.84,0013.50
2022-09-07 16:26:00,,0834.1,5.01,0.00,29.8,27.2,00.0,38.4,31.5,19.4,0002.7,0032.86,0015.84,0013.50
2022-09-07 16:27:00,,0834.1,5.00,0.00,29.7,27.5,00.0,38.4,31.5,19.5,0002.5,0032.57,0015.89,0013.52
2022-09-07 16:28:00,,0834.1,5.00,0.00,29.7,27.8,00.0,38.4,31.5,19.7,0002.9,0032.40,0015.83,0013.52
2022-09-07 16:29:00,,0834.0,5.00,0.00,29.7,28.0,00.0,38.4,31.6,19.5,0003.2,0033.28,0015.82,0013.54
2022-09-07 16:30:00,,0834.1,5.01,0.00,29.8,28.2,00.0,38.5,31.6,19.5,0003.1,0033.09,0015.82,0013.56
2022-09-07 16:31:00,,0834.1,4.98,0.00,29.8,28.4,00.0,38.5,31.7,19.6,0003.2,0032.17,0015.87,0013.59
2022-09-07 16:32:00,,0834.1,5.01,0.00,29.8,28.6,00.0,38.5,31.7,19.5,0003.1,0031.36,0015.86,0013.61
2022-09-07 16:33:00,,0834.1,4.99,0.00,29.9,28.6,00.0,38.5,31.8,19.4,0002.9,0032.46,0015.88,0013.64
2022-09-07 16:34:00,,0834.1,5.00,0.00,29.9,27.6,00.0,38.5,31.6,19.5,0003.1,0033.03,0015.82,0013.63
2022-09-07 16:35:00,,0834.1,5.00,0.00,29.8,26.8,00.0,38.5,31.5,19.4,0003.3,0032.42,0015.87,0013.65
2022-09-07 16:36:00,,0834.1,5.00,0.00,29.8,27.0,00.0,38.4,31.5,19.5,0003.2,0030.51,0015.87,0013.67
2022-09-07 16:37:00,,0834.1,5.00,0.00,29.7,27.2,00.0,38.4,31.4,19.4,0003.3,0029.55,0015.82,0013.69
2022-09-07 16:38:00,,0834.1,5.00,0.00,29.7,27.6,00.0,38.4,31.5,19.5,0003.2,0030.45,0015.78,0013.70
2022-09-07 16:39:00,,0834.1,5.00,0.00,29.7,27.8,00.0,38.4,31.5,19.6,0002.3,0029.82,0015.82,0013.74
2022-09-07 16:40:00,,0834.0,5.01,0.00,29.7,28.1,00.0,38.4,31.6,19.7,0001.8,0029.24,0015.93,0013.76
2022-09-07 16:41:00,,0834.1,5.00,0.00,29.7,28.3,00.0,38.4,31.6,19.6,0001.8,0030.00,0015.97,0013.77
2022-09-07 16:42:00,,0834.1,4.99,0.00,29.8,28.5,00.0,38.4,31.7,19.6,0001.6,0031.74,0016.00,0013.79
2022-09-07 16:43:00,,0834.1,5.01,0.00,29.8,28.5,00.0,38.5,31.7,19.7,0001.9,0032.69,0016.06,0013.80
2022-09-07 16:44:00,,0834.1,4.98,0.00,29.8,27.7,00.0,38.5,31.6,19.9,0002.1,0032.83,0016.06,0013.79
2022-09-07 16:45:00,,0834.0,5.00,0.00,29.8,26.8,00.0,38.4,31.5,20.0,0002.3,0033.74,0016.09,0013.79
2022-09-07 16:46:00,,0834.1,5.00,0.00,29.7,26.9,00.0,38.4,31.5,20.5,0002.1,0034.34,0016.07,0013.77
2022-09-07 16:47:00,,0834.1,5.01,0.00,29.7,27.2,00.0,38.4,31.4,20.8,0002.1,0034.65,0016.03,0013.70
2022-09-07 16:48:00,,0834.1,5.00,0.00,29.7,27.4,00.0,38.3,31.4,21.0,0002.0,0035.17,0015.94,0013.58
2022-09-07 16:49:00,,0834.1,5.00,0.00,29.7,27.7,00.0,38.4,31.5,21.0,0002.0,0035.42,0015.85,0013.50
2022-09-07 16:50:00,,0834.1,5.00,0.00,29.7,28.0,00.0,38.4,31.5,21.0,0002.4,0035.49,0015.74,0013.40
2022-09-07 16:51:00,,0834.0,5.01,0.00,29.7,28.2,00.0,38.4,31.6,21.2,0003.0,0035.61,0015.56,0013.27
2022-09-07 16:52:00,,0834.0,4.98,0.00,29.7,28.4,00.0,38.4,31.6,21.3,0003.0,0034.72,0015.48,0013.14
2022-09-07 16:53:00,,0834.0,5.01,0.00,29.8,28.5,00.0,38.4,31.7,21.6,0003.3,0034.38,0015.31,0012.98
2022-09-07 16:54:00,,0834.0,5.00,0.00,29.8,27.9,00.0,38.4,31.7,21.1,0003.5,0033.76,0015.13,0012.84
2022-09-07 16:55:00,,0834.0,4.99,0.00,29.7,26.8,00.0,38.4,31.5,21.2,0003.5,0034.26,0015.10,0012.73
2022-09-07 16:56:00,,0834.0,5.00,0.00,29.7,26.9,00.0,38.4,31.5,21.2,0003.3,0033.99,0015.09,0012.67
2022-09-07 16:57:00,,0834.0,5.00,0.00,29.7,27.2,00.0,38.3,31.4,20.9,0003.3,0034.03,0014.95,0012.60
2022-09-07 16:58:00,,0834.0,5.00,0.00,29.6,27.4,00.0,38.3,31.4,20.7,0003.3,0034.01,0014.92,0012.61
2022-09-07 16:59:00,,0834.0,5.00,0.00,29.6,27.7,00.0,38.3,31.4,20.9,0003.1,0033.88,0014.98,0012.66
